| time (UTC) | temp F | wind direction | speed MPH | gust MPH | rain 1hr in | rain 24hr in | rain mn in | humidity % | barometer mb |
| 20260904041114 | 54 | 238 | 0.0 | 2.0 | 0.00 | 0.01 | 0.01 | 74 | 1022.2 |
| 20260904040834 | 54 | 251 | 0.0 | 0.0 | 0.00 | 0.01 | 0.01 | 74 | 1022.1 |
| 20260904040340 | 54 | 251 | 0.0 | 0.0 | 0.00 | 0.01 | 0.01 | 74 | 1022.0 |
| 20260904035615 | 54 | 240 | 0.0 | 0.0 | 0.00 | 0.01 | 0.01 | 74 | 1022.1 |
| 20260904035111 | 54 | 240 | 0.0 | 0.0 | 0.00 | 0.01 | 0.01 | 74 | 1022.0 |
| 20260904034612 | 55 | 240 | 0.0 | 0.0 | 0.00 | 0.01 | 0.01 | 75 | 1022.0 |
| 20260904034111 | 55 | 248 | 0.0 | 0.0 | 0.00 | 0.01 | 0.01 | 74 | 1022.0 |
| 20260904033612 | 55 | 248 | 0.0 | 0.0 | 0.00 | 0.01 | 0.01 | 73 | 1021.9 |
| 20260904033334 | 55 | 248 | 0.0 | 0.0 | 0.00 | 0.01 | 0.01 | 73 | 1021.9 |
| 20260904032612 | 55 | 248 | 0.0 | 0.0 | 0.00 | 0.01 | 0.01 | 73 | 1021.9 |
| 20260904032111 | 55 | 248 | 0.0 | 0.0 | 0.00 | 0.01 | 0.01 | 73 | 1021.9 |
| 20260904031611 | 55 | 257 | 0.0 | 0.0 | 0.00 | 0.01 | 0.01 | 73 | 1021.9 |
| 20260904031111 | 55 | 340 | 0.0 | 0.0 | 0.00 | 0.01 | 0.01 | 73 | 1021.9 |
| 20260904030610 | 55 | 340 | 0.0 | 0.0 | 0.00 | 0.01 | 0.01 | 73 | 1021.8 |
| 20260904030109 | 55 | 340 | 0.0 | 0.0 | 0.00 | 0.01 | 0.01 | 73 | 1021.8 |
| 20260904025610 | 55 | 272 | 0.0 | 0.0 | 0.00 | 0.01 | 0.01 | 72 | 1021.8 |
| 20260904025333 | 55 | 235 | 0.0 | 0.0 | 0.00 | 0.01 | 0.01 | 72 | 1021.8 |
| 20260904024610 | 55 | 235 | 0.0 | 0.0 | 0.00 | 0.01 | 0.01 | 72 | 1021.8 |
| 20260904024109 | 55 | 216 | 0.0 | 0.0 | 0.00 | 0.01 | 0.01 | 71 | 1021.8 |
| 20260904023610 | 56 | 214 | 0.0 | 0.0 | 0.00 | 0.01 | 0.01 | 70 | 1021.8 |
| 20260904023109 | 56 | 358 | 0.0 | 0.0 | 0.00 | 0.01 | 0.01 | 68 | 1021.7 |
| 20260904022831 | 56 | 358 | 0.0 | 0.0 | 0.00 | 0.01 | 0.01 | 66 | 1021.6 |
| 20260904022108 | 57 | 13 | 0.0 | 0.0 | 0.00 | 0.01 | 0.01 | 64 | 1021.5 |
| 20260904021609 | 57 | 307 | 0.0 | 0.0 | 0.00 | 0.01 | 0.01 | 64 | 1021.5 |
| 20260904021107 | 57 | 334 | 0.0 | 0.0 | 0.00 | 0.01 | 0.01 | 63 | 1021.5 |
| 20260904020609 | 57 | 314 | 0.0 | 0.0 | 0.00 | 0.01 | 0.01 | 62 | 1021.5 |
| 20260904020107 | 58 | 314 | 0.0 | 3.0 | 0.00 | 0.01 | 0.01 | 61 | 1021.4 |
| 20260904015608 | 58 | 324 | 0.0 | 3.0 | 0.00 | 0.01 | 0.01 | 61 | 1021.5 |
| 20260904015107 | 58 | 292 | 1.0 | 3.0 | 0.00 | 0.01 | 0.01 | 60 | 1021.4 |
| 20260904014607 | 58 | 313 | 1.0 | 4.0 | 0.00 | 0.01 | 0.01 | 60 | 1021.3 |
| 20260904014115 | 58 | 305 | 1.0 | 4.0 | 0.00 | 0.01 | 0.01 | 60 | 1021.4 |
| 20260904013608 | 58 | 300 | 1.0 | 3.0 | 0.00 | 0.01 | 0.01 | 60 | 1021.4 |
| 20260904013109 | 58 | 299 | 0.0 | 4.0 | 0.00 | 0.01 | 0.01 | 61 | 1021.5 |
| 20260904012608 | 58 | 11 | 1.0 | 4.0 | 0.00 | 0.01 | 0.01 | 60 | 1021.4 |
| 20260904012109 | 58 | 296 | 1.0 | 5.0 | 0.00 | 0.01 | 0.01 | 60 | 1021.5 |
| 20260904011836 | 58 | 319 | 2.0 | 10.0 | 0.00 | 0.01 | 0.01 | 60 | 1021.5 |
| 20260904011107 | 58 | 219 | 2.0 | 10.0 | 0.00 | 0.01 | 0.01 | 60 | 1021.4 |
| 20260904010608 | 58 | 302 | 2.0 | 5.0 | 0.00 | 0.01 | 0.01 | 60 | 1021.4 |
| 20260904010106 | 58 | 312 | 2.0 | 4.0 | 0.00 | 0.01 | 0.01 | 60 | 1021.4 |
| 20260904005608 | 58 | 316 | 1.0 | 6.0 | 0.00 | 0.01 | 0.01 | 60 | 1021.4 |
| 20260904005108 | 58 | 293 | 1.0 | 6.0 | 0.00 | 0.01 | 0.01 | 60 | 1021.4 |
| 20260904004835 | 58 | 324 | 1.0 | 3.0 | 0.00 | 0.01 | 0.01 | 59 | 1021.4 |
| 20260904004107 | 58 | 306 | 1.0 | 4.0 | 0.00 | 0.01 | 0.01 | 60 | 1021.4 |
| 20260904003830 | 58 | 293 | 2.0 | 4.0 | 0.00 | 0.01 | 0.01 | 61 | 1021.4 |
| 20260904003106 | 58 | 300 | 2.0 | 4.0 | 0.00 | 0.01 | 0.01 | 62 | 1021.4 |
| 20260904002607 | 58 | 298 | 1.0 | 4.0 | 0.00 | 0.01 | 0.01 | 63 | 1021.4 |
| 20260904002107 | 58 | 300 | 2.0 | 4.0 | 0.00 | 0.01 | 0.01 | 63 | 1021.4 |
| 20260904001606 | 59 | 320 | 1.0 | 3.0 | 0.00 | 0.01 | 0.01 | 62 | 1021.4 |
| 20260904001109 | 59 | 312 | 1.0 | 3.0 | 0.00 | 0.01 | 0.01 | 62 | 1021.4 |
| 20260904001100 | 59 | 306 | 1.0 | 3.0 | 0.00 | 0.01 | 0.01 | 61 | 1021.4 |
| 20260904000108 | 60 | 312 | 1.0 | 3.0 | 0.00 | 0.01 | 0.01 | 61 | 1021.4 |
| 20260903235610 | 60 | 300 | 1.0 | 3.0 | 0.00 | 0.01 | 0.01 | 61 | 1021.4 |
| 20260903235105 | 60 | 329 | 1.0 | 3.0 | 0.00 | 0.01 | 0.01 | 61 | 1021.4 |
| 20260903234608 | 60 | 303 | 2.0 | 3.0 | 0.00 | 0.01 | 0.01 | 61 | 1021.5 |
| 20260903234106 | 60 | 351 | 2.0 | 6.0 | 0.00 | 0.01 | 0.01 | 58 | 1021.4 |
| 20260903233606 | 60 | 324 | 2.0 | 6.0 | 0.00 | 0.01 | 0.01 | 57 | 1021.4 |
| 20260903233106 | 60 | 331 | 2.0 | 6.0 | 0.00 | 0.01 | 0.01 | 56 | 1021.4 |
| 20260903232606 | 60 | 290 | 1.0 | 6.0 | 0.00 | 0.01 | 0.01 | 57 | 1021.5 |
| 20260903232105 | 60 | 298 | 2.0 | 6.0 | 0.00 | 0.01 | 0.01 | 56 | 1021.4 |
| 20260903231606 | 60 | 355 | 2.0 | 6.0 | 0.00 | 0.01 | 0.01 | 56 | 1021.5 |
| 20260903231105 | 60 | 309 | 2.0 | 6.0 | 0.00 | 0.01 | 0.01 | 55 | 1021.5 |
| 20260903230610 | 60 | 3 | 1.0 | 5.0 | 0.00 | 0.01 | 0.01 | 57 | 1021.5 |
| 20260903230105 | 60 | 309 | 2.0 | 6.0 | 0.00 | 0.01 | 0.01 | 56 | 1021.6 |
| 20260903225601 | 60 | 331 | 2.0 | 6.0 | 0.00 | 0.01 | 0.01 | 56 | 1021.8 |
| 20260903225105 | 60 | 331 | 2.0 | 5.0 | 0.00 | 0.01 | 0.01 | 57 | 1021.6 |
| 20260903224604 | 60 | 343 | 2.0 | 5.0 | 0.00 | 0.01 | 0.01 | 58 | 1021.6 |
| 20260903224329 | 60 | 290 | 2.0 | 5.0 | 0.00 | 0.01 | 0.01 | 58 | 1021.6 |
| 20260903223604 | 60 | 306 | 2.0 | 5.0 | 0.00 | 0.01 | 0.01 | 57 | 1021.7 |
| 20260903223106 | 60 | 296 | 3.0 | 5.0 | 0.00 | 0.01 | 0.01 | 58 | 1021.6 |
| 20260903222604 | 61 | 300 | 2.0 | 5.0 | 0.00 | 0.01 | 0.01 | 56 | 1021.6 |
| 20260903222104 | 61 | 334 | 2.0 | 5.0 | 0.00 | 0.01 | 0.01 | 56 | 1021.5 |
| 20260903221601 | 61 | 319 | 2.0 | 5.0 | 0.00 | 0.01 | 0.01 | 56 | 1021.5 |
| 20260903221322 | 60 | 343 | 1.0 | 4.0 | 0.00 | 0.01 | 0.01 | 59 | 1021.4 |
| 20260903220604 | 60 | 281 | 1.0 | 6.0 | 0.00 | 0.01 | 0.01 | 60 | 1021.4 |
| 20260903215604 | 62 | 293 | 2.0 | 5.0 | 0.00 | 0.01 | 0.01 | 55 | 1021.4 |
| 20260903215549 | 63 | 48 | 4.0 | 9.0 | 0.00 | 0.01 | 0.01 | 51 | 1021.4 |
| 20260903214603 | 66 | 47 | 5.0 | 10.0 | 0.00 | 0.01 | 0.01 | 45 | 1021.4 |
| 20260903214105 | 66 | 107 | 4.0 | 10.0 | 0.00 | 0.01 | 0.01 | 41 | 1021.0 |
| 20260903213100 | 66 | 99 | 4.0 | 14.0 | 0.00 | 0.01 | 0.01 | 41 | 1021.1 |
| 20260903212559 | 66 | 130 | 5.0 | 14.0 | 0.00 | 0.01 | 0.01 | 42 | 1021.0 |
| 20260903212326 | 66 | 102 | 4.0 | 13.0 | 0.00 | 0.01 | 0.01 | 43 | 1021.0 |
| 20260903211602 | 66 | 93 | 5.0 | 15.0 | 0.00 | 0.01 | 0.01 | 43 | 1021.0 |
| 20260903211103 | 65 | 107 | 6.0 | 16.0 | 0.00 | 0.01 | 0.01 | 43 | 1020.9 |
| 20260903210602 | 66 | 99 | 7.0 | 16.0 | 0.00 | 0.01 | 0.01 | 43 | 1020.9 |
| 20260903205601 | 65 | 128 | 10.0 | 17.0 | 0.00 | 0.01 | 0.01 | 44 | 1020.8 |
| 20260903205101 | 65 | 147 | 8.0 | 14.0 | 0.00 | 0.01 | 0.01 | 43 | 1020.7 |
| 20260903204602 | 65 | 58 | 8.0 | 13.0 | 0.00 | 0.01 | 0.01 | 44 | 1020.8 |
| 20260903204540 | 65 | 121 | 6.0 | 13.0 | 0.00 | 0.01 | 0.01 | 45 | 1020.7 |
| 20260903203603 | 65 | 96 | 8.0 | 16.0 | 0.00 | 0.01 | 0.01 | 45 | 1020.7 |
| 20260903203100 | 65 | 100 | 8.0 | 16.0 | 0.00 | 0.01 | 0.01 | 45 | 1020.6 |
| 20260903202601 | 65 | 133 | 7.0 | 16.0 | 0.00 | 0.01 | 0.01 | 46 | 1020.6 |
| 20260903202320 | 66 | 147 | 8.0 | 16.0 | 0.00 | 0.01 | 0.01 | 44 | 1020.7 |
| 20260903201559 | 66 | 130 | 8.0 | 13.0 | 0.00 | 0.01 | 0.01 | 44 | 1020.7 |
| 20260903201100 | 67 | 118 | 7.0 | 18.0 | 0.00 | 0.01 | 0.01 | 44 | 1020.7 |
| 20260903200559 | 67 | 140 | 9.0 | 18.0 | 0.00 | 0.01 | 0.01 | 43 | 1020.6 |
| 20260903200100 | 67 | 62 | 5.0 | 11.0 | 0.00 | 0.01 | 0.01 | 44 | 1020.7 |
| 20260903195826 | 65 | 96 | 2.0 | 12.0 | 0.00 | 0.01 | 0.01 | 46 | 1020.8 |
| 20260903195102 | 66 | 114 | 6.0 | 12.0 | 0.00 | 0.01 | 0.01 | 43 | 1020.8 |
| 20260903194600 | 66 | 131 | 5.0 | 15.0 | 0.00 | 0.01 | 0.01 | 43 | 1020.8 |
| 20260903194319 | 67 | 141 | 8.0 | 15.0 | 0.00 | 0.01 | 0.01 | 42 | 1020.8 |
| 20260903193600 | 67 | 52 | 8.0 | 15.0 | 0.00 | 0.01 | 0.01 | 45 | 1020.7 |
| 20260903193100 | 67 | 140 | 6.0 | 12.0 | 0.00 | 0.01 | 0.01 | 45 | 1020.7 |
| 20260903192821 | 66 | 59 | 4.0 | 12.0 | 0.00 | 0.01 | 0.01 | 45 | 1020.7 |
| 20260903192321 | 66 | 114 | 7.0 | 12.0 | 0.00 | 0.01 | 0.01 | 47 | 1020.6 |
| 20260903191823 | 66 | 118 | 6.0 | 16.0 | 0.00 | 0.01 | 0.01 | 47 | 1020.5 |
| 20260903191101 | 66 | 133 | 5.0 | 16.0 | 0.00 | 0.01 | 0.01 | 46 | 1020.6 |
| 20260903190601 | 66 | 59 | 5.0 | 13.0 | 0.00 | 0.01 | 0.01 | 46 | 1020.6 |
| 20260903190105 | 66 | 61 | 6.0 | 13.0 | 0.00 | 0.01 | 0.01 | 47 | 1020.6 |
| 20260903185559 | 66 | 54 | 6.0 | 13.0 | 0.00 | 0.01 | 0.01 | 40 | 1020.6 |
| 20260903185100 | 66 | 120 | 6.0 | 13.0 | 0.00 | 0.01 | 0.01 | 40 | 1020.6 |
| 20260903184559 | 66 | 69 | 5.0 | 11.0 | 0.00 | 0.01 | 0.01 | 42 | 1020.6 |
| 20260903184059 | 66 | 104 | 6.0 | 11.0 | 0.00 | 0.01 | 0.01 | 42 | 1020.6 |
| 20260903183819 | 65 | 102 | 3.0 | 9.0 | 0.00 | 0.01 | 0.01 | 45 | 1020.7 |
| 20260903183056 | 65 | 76 | 5.0 | 7.0 | 0.00 | 0.01 | 0.01 | 45 | 1020.7 |
| 20260903182813 | 65 | 155 | 2.0 | 7.0 | 0.00 | 0.01 | 0.01 | 43 | 1020.7 |
| 20260903182318 | 65 | 128 | 4.0 | 10.0 | 0.00 | 0.01 | 0.01 | 46 | 1020.7 |
| 20260903181558 | 65 | 55 | 4.0 | 10.0 | 0.00 | 0.01 | 0.01 | 47 | 1020.7 |
| 20260903181058 | 65 | 107 | 4.0 | 9.0 | 0.00 | 0.01 | 0.01 | 46 | 1020.7 |
| 20260903180604 | 64 | 134 | 2.0 | 7.0 | 0.00 | 0.01 | 0.01 | 47 | 1020.8 |
| 20260903180318 | 64 | 207 | 2.0 | 7.0 | 0.00 | 0.01 | 0.01 | 46 | 1020.7 |
| 20260903175558 | 64 | 75 | 2.0 | 6.0 | 0.00 | 0.01 | 0.01 | 45 | 1020.7 |
| 20260903175057 | 64 | 89 | 2.0 | 5.0 | 0.00 | 0.01 | 0.01 | 46 | 1020.7 |
| 20260903174559 | 63 | 72 | 1.0 | 5.0 | 0.00 | 0.01 | 0.01 | 46 | 1020.8 |
| 20260903174057 | 64 | 125 | 2.0 | 4.0 | 0.00 | 0.01 | 0.01 | 44 | 1020.7 |
| 20260903173559 | 64 | 52 | 2.0 | 4.0 | 0.00 | 0.01 | 0.01 | 46 | 1020.7 |
| 20260903173057 | 63 | 79 | 1.0 | 4.0 | 0.00 | 0.01 | 0.01 | 43 | 1020.8 |
| 20260903172557 | 63 | 13 | 0.0 | 4.0 | 0.00 | 0.01 | 0.01 | 44 | 1020.6 |
| 20260903172057 | 63 | 66 | 2.0 | 4.0 | 0.00 | 0.01 | 0.01 | 47 | 1020.7 |
| 20260903171559 | 64 | 39 | 1.0 | 3.0 | 0.00 | 0.01 | 0.01 | 45 | 1020.6 |
| 20260903171058 | 63 | 214 | 0.0 | 3.0 | 0.00 | 0.01 | 0.01 | 48 | 1020.6 |
| 20260903170602 | 62 | 355 | 2.0 | 3.0 | 0.00 | 0.01 | 0.01 | 53 | 1020.6 |
| 20260903170055 | 62 | 62 | 1.0 | 7.0 | 0.00 | 0.01 | 0.01 | 53 | 1020.6 |
| 20260903165556 | 62 | 51 | 1.0 | 7.0 | 0.00 | 0.01 | 0.01 | 55 | 1020.5 |
| 20260903165056 | 61 | 350 | 0.0 | 3.0 | 0.00 | 0.01 | 0.01 | 57 | 1020.6 |
| 20260903164557 | 61 | 314 | 1.0 | 6.0 | 0.00 | 0.01 | 0.01 | 59 | 1020.5 |
| 20260903164056 | 60 | 233 | 1.0 | 6.0 | 0.00 | 0.01 | 0.01 | 57 | 1020.5 |
| 20260903163556 | 60 | 269 | 0.0 | 3.0 | 0.00 | 0.01 | 0.01 | 61 | 1020.5 |
| 20260903163055 | 59 | 11 | 2.0 | 4.0 | 0.00 | 0.01 | 0.01 | 62 | 1020.5 |
| 20260903162827 | 59 | 66 | 1.0 | 4.0 | 0.00 | 0.01 | 0.01 | 62 | 1020.5 |
| 20260903162056 | 59 | 345 | 1.0 | 3.0 | 0.00 | 0.01 | 0.01 | 69 | 1020.5 |
| 20260903161559 | 58 | 228 | 0.0 | 2.0 | 0.00 | 0.01 | 0.01 | 72 | 1020.6 |
| 20260903161100 | 58 | 340 | 1.0 | 2.0 | 0.00 | 0.01 | 0.01 | 72 | 1020.5 |
| 20260903160825 | 58 | 47 | 0.0 | 1.0 | 0.00 | 0.01 | 0.01 | 74 | 1020.5 |
| 20260903160534 | 58 | 110 | 0.0 | 1.0 | 0.00 | 0.01 | 0.01 | 80 | 1020.5 |
| 20260903155555 | 57 | 47 | 0.0 | 2.0 | 0.00 | 0.01 | 0.01 | 83 | 1020.6 |
| 20260903155055 | 56 | 155 | 0.0 | 2.0 | 0.00 | 0.01 | 0.01 | 85 | 1020.5 |
| 20260903154556 | 56 | 109 | 0.0 | 2.0 | 0.00 | 0.01 | 0.01 | 87 | 1020.6 |
| 20260903154055 | 55 | 109 | 0.0 | 2.0 | 0.00 | 0.01 | 0.01 | 88 | 1020.7 |
| 20260903153556 | 54 | 75 | 0.0 | 2.0 | 0.00 | 0.01 | 0.01 | 91 | 1020.6 |
| 20260903153053 | 53 | 85 | 0.0 | 2.0 | 0.00 | 0.01 | 0.01 | 91 | 1020.7 |
| 20260903152555 | 53 | 131 | 0.0 | 1.0 | 0.00 | 0.01 | 0.01 | 92 | 1020.8 |
| 20260903152322 | 52 | 131 | 0.0 | 1.0 | 0.00 | 0.01 | 0.01 | 92 | 1020.7 |
| 20260903151554 | 52 | 144 | 0.0 | 1.0 | 0.00 | 0.01 | 0.01 | 92 | 1020.6 |
| 20260903151054 | 52 | 125 | 0.0 | 1.0 | 0.00 | 0.01 | 0.01 | 92 | 1020.6 |
| 20260903150557 | 51 | 159 | 0.0 | 0.0 | 0.00 | 0.01 | 0.01 | 92 | 1020.6 |
| 20260903150053 | 51 | 159 | 0.0 | 0.0 | 0.00 | 0.01 | 0.01 | 93 | 1020.5 |
| 20260903145553 | 51 | 159 | 0.0 | 0.0 | 0.00 | 0.01 | 0.01 | 92 | 1020.6 |
| 20260903145054 | 51 | 159 | 0.0 | 0.0 | 0.00 | 0.01 | 0.01 | 92 | 1020.6 |
| 20260903144555 | 51 | 159 | 0.0 | 0.0 | 0.00 | 0.01 | 0.01 | 92 | 1020.5 |
| 20260903144054 | 50 | 159 | 0.0 | 0.0 | 0.00 | 0.01 | 0.01 | 92 | 1020.5 |
| 20260903143553 | 50 | 159 | 0.0 | 0.0 | 0.00 | 0.01 | 0.01 | 92 | 1020.4 |
| 20260903143054 | 50 | 159 | 0.0 | 0.0 | 0.00 | 0.01 | 0.01 | 92 | 1020.4 |
| 20260903142814 | 50 | 159 | 0.0 | 1.0 | 0.00 | 0.01 | 0.01 | 92 | 1020.3 |
| 20260903142053 | 50 | 159 | 0.0 | 1.0 | 0.00 | 0.01 | 0.01 | 92 | 1020.3 |
| 20260903141553 | 50 | 182 | 0.0 | 0.0 | 0.00 | 0.01 | 0.01 | 91 | 1020.3 |
| 20260903141054 | 51 | 182 | 0.0 | 0.0 | 0.00 | 0.01 | 0.01 | 91 | 1020.2 |
| 20260903140556 | 51 | 182 | 0.0 | 0.0 | 0.00 | 0.01 | 0.01 | 91 | 1020.2 |
| 20260903140317 | 51 | 182 | 0.0 | 0.0 | 0.00 | 0.01 | 0.01 | 92 | 1020.2 |
| 20260903135815 | 51 | 196 | 0.0 | 0.0 | 0.00 | 0.01 | 0.01 | 92 | 1020.1 |
| 20260903135052 | 51 | 196 | 0.0 | 0.0 | 0.00 | 0.01 | 0.01 | 92 | 1020.1 |
| 20260903134552 | 51 | 196 | 0.0 | 0.0 | 0.00 | 0.01 | 0.01 | 91 | 1019.9 |
| 20260903134544 | 51 | 196 | 0.0 | 0.0 | 0.00 | 0.01 | 0.01 | 91 | 1019.9 |
| 20260903133554 | 51 | 196 | 0.0 | 0.0 | 0.00 | 0.01 | 0.01 | 91 | 1019.9 |
| 20260903133051 | 51 | 196 | 0.0 | 0.0 | 0.00 | 0.01 | 0.01 | 91 | 1019.8 |
| 20260903132552 | 51 | 196 | 0.0 | 0.0 | 0.00 | 0.01 | 0.01 | 90 | 1019.8 |
| 20260903132051 | 51 | 196 | 0.0 | 0.0 | 0.00 | 0.01 | 0.01 | 90 | 1019.8 |
| 20260903131558 | 51 | 196 | 0.0 | 0.0 | 0.00 | 0.01 | 0.01 | 90 | 1019.8 |
| 20260903131053 | 51 | 196 | 0.0 | 0.0 | 0.00 | 0.01 | 0.01 | 90 | 1019.8 |
| 20260903130551 | 51 | 196 | 0.0 | 0.0 | 0.00 | 0.01 | 0.01 | 91 | 1019.8 |
| 20260903130051 | 51 | 196 | 0.0 | 0.0 | 0.00 | 0.01 | 0.01 | 91 | 1019.8 |
| 20260903125551 | 52 | 196 | 0.0 | 0.0 | 0.00 | 0.01 | 0.01 | 91 | 1019.6 |
| 20260903125312 | 51 | 196 | 0.0 | 0.0 | 0.00 | 0.01 | 0.01 | 91 | 1019.5 |
| 20260903124551 | 52 | 196 | 0.0 | 0.0 | 0.00 | 0.01 | 0.01 | 91 | 1019.5 |
| 20260903124052 | 52 | 196 | 0.0 | 0.0 | 0.00 | 0.01 | 0.01 | 91 | 1019.4 |
| 20260903123552 | 51 | 196 | 0.0 | 0.0 | 0.00 | 0.01 | 0.01 | 90 | 1019.5 |
| 20260903123544 | 51 | 196 | 0.0 | 0.0 | 0.00 | 0.01 | 0.01 | 90 | 1019.5 |
| 20260903122551 | 51 | 196 | 0.0 | 0.0 | 0.00 | 0.01 | 0.01 | 90 | 1019.4 |
| 20260903122050 | 51 | 196 | 0.0 | 0.0 | 0.00 | 0.01 | 0.01 | 91 | 1019.3 |
| 20260903121551 | 51 | 196 | 0.0 | 0.0 | 0.00 | 0.01 | 0.01 | 91 | 1019.4 |
| 20260903121050 | 51 | 196 | 0.0 | 0.0 | 0.00 | 0.01 | 0.01 | 91 | 1019.3 |
| 20260903120757 | 51 | 196 | 0.0 | 0.0 | 0.00 | 0.01 | 0.01 | 90 | 1019.4 |
| 20260903120644 | 51 | 196 | 0.0 | 0.0 | 0.00 | 0.01 | 0.01 | 91 | 1019.5 |
| 20260903120043 | 51 | 196 | 0.0 | 0.0 | 0.00 | 0.01 | 0.01 | 91 | 1019.5 |
| 20260903115050 | 51 | 197 | 0.0 | 0.0 | 0.00 | 0.01 | 0.01 | 91 | 1019.4 |
| 20260903114551 | 51 | 197 | 0.0 | 0.0 | 0.00 | 0.01 | 0.01 | 91 | 1019.3 |
| 20260903114049 | 51 | 196 | 0.0 | 0.0 | 0.00 | 0.01 | 0.01 | 91 | 1019.3 |
| 20260903113550 | 51 | 219 | 0.0 | 0.0 | 0.00 | 0.01 | 0.01 | 91 | 1019.3 |
| 20260903113050 | 52 | 227 | 0.0 | 0.0 | 0.00 | 0.01 | 0.01 | 91 | 1019.3 |
| 20260903112549 | 52 | 227 | 0.0 | 0.0 | 0.00 | 0.01 | 0.01 | 91 | 1019.3 |
| 20260903112049 | 52 | 227 | 0.0 | 0.0 | 0.00 | 0.01 | 0.01 | 90 | 1019.3 |
| 20260903111548 | 52 | 227 | 0.0 | 0.0 | 0.00 | 0.01 | 0.01 | 90 | 1019.2 |
| 20260903111050 | 52 | 227 | 0.0 | 0.0 | 0.00 | 0.01 | 0.01 | 89 | 1019.1 |
| 20260903110758 | 52 | 227 | 0.0 | 2.0 | 0.00 | 0.01 | 0.01 | 90 | 1019.1 |
| 20260903110648 | 53 | 227 | 0.0 | 2.0 | 0.00 | 0.01 | 0.01 | 89 | 1019.0 |
| 20260903105549 | 52 | 251 | 0.0 | 2.0 | 0.00 | 0.01 | 0.01 | 91 | 1019.0 |
| 20260903105048 | 52 | 245 | 0.0 | 2.0 | 0.00 | 0.01 | 0.01 | 91 | 1018.9 |
| 20260903104548 | 52 | 254 | 0.0 | 2.0 | 0.00 | 0.01 | 0.01 | 91 | 1018.7 |
| 20260903104048 | 52 | 166 | 0.0 | 0.0 | 0.00 | 0.01 | 0.01 | 91 | 1018.9 |
| 20260903103549 | 53 | 168 | 0.0 | 0.0 | 0.01 | 0.01 | 0.01 | 90 | 1019.0 |
| 20260903103049 | 53 | 168 | 0.0 | 1.0 | 0.01 | 0.01 | 0.01 | 90 | 1019.0 |
| 20260903102549 | 53 | 168 | 0.0 | 1.0 | 0.01 | 0.01 | 0.01 | 90 | 1019.2 |
| 20260903102047 | 53 | 166 | 0.0 | 0.0 | 0.01 | 0.01 | 0.01 | 90 | 1019.2 |
| 20260903101810 | 53 | 168 | 0.0 | 0.0 | 0.01 | 0.01 | 0.01 | 90 | 1019.1 |
| 20260903101047 | 53 | 168 | 0.0 | 0.0 | 0.01 | 0.01 | 0.01 | 90 | 1019.1 |
| 20260903100548 | 53 | 168 | 0.0 | 0.0 | 0.01 | 0.01 | 0.01 | 90 | 1019.0 |
| 20260903100314 | 53 | 168 | 0.0 | 0.0 | 0.01 | 0.01 | 0.01 | 89 | 1019.0 |
| 20260903095547 | 53 | 166 | 0.0 | 0.0 | 0.01 | 0.01 | 0.01 | 88 | 1019.1 |
| 20260903095048 | 54 | 165 | 0.0 | 0.0 | 0.01 | 0.01 | 0.01 | 87 | 1019.1 |
| 20260903094548 | 54 | 165 | 0.0 | 1.0 | 0.01 | 0.01 | 0.01 | 86 | 1019.0 |
| 20260903094049 | 54 | 165 | 0.0 | 2.0 | 0.01 | 0.01 | 0.01 | 82 | 1019.1 |
| 20260903094038 | 54 | 166 | 0.0 | 2.0 | 0.00 | 0.00 | 0.00 | 83 | 1019.1 |
| 20260903093048 | 54 | 185 | 0.0 | 1.0 | 0.00 | 0.00 | 0.00 | 83 | 1019.1 |
| 20260903092552 | 54 | 128 | 0.0 | 1.0 | 0.00 | 0.00 | 0.00 | 84 | 1019.0 |
| 20260903092047 | 54 | 144 | 0.0 | 1.0 | 0.00 | 0.00 | 0.00 | 82 | 1019.0 |
| 20260903091546 | 55 | 343 | 0.0 | 0.0 | 0.00 | 0.00 | 0.00 | 83 | 1019.0 |
| 20260903091048 | 55 | 343 | 0.0 | 0.0 | 0.00 | 0.00 | 0.00 | 82 | 1018.9 |
| 20260903090547 | 55 | 343 | 0.0 | 0.0 | 0.00 | 0.00 | 0.00 | 81 | 1018.9 |
| 20260903090045 | 56 | 343 | 0.0 | 0.0 | 0.00 | 0.00 | 0.00 | 78 | 1018.9 |
| 20260903085808 | 56 | 343 | 0.0 | 2.0 | 0.00 | 0.00 | 0.00 | 78 | 1018.8 |
| 20260903085046 | 56 | 343 | 0.0 | 3.0 | 0.00 | 0.00 | 0.00 | 77 | 1018.8 |
| 20260903084547 | 56 | 341 | 2.0 | 3.0 | 0.00 | 0.00 | 0.00 | 77 | 1018.7 |
| 20260903084045 | 56 | 252 | 0.0 | 0.0 | 0.00 | 0.00 | 0.00 | 76 | 1018.7 |
| 20260903083545 | 56 | 251 | 0.0 | 0.0 | 0.00 | 0.00 | 0.00 | 74 | 1018.6 |
| 20260903083529 | 56 | 251 | 0.0 | 0.0 | 0.00 | 0.00 | 0.00 | 74 | 1018.7 |
| 20260903082545 | 56 | 251 | 0.0 | 1.0 | 0.00 | 0.00 | 0.00 | 73 | 1018.6 |
| 20260903082048 | 56 | 251 | 0.0 | 1.0 | 0.00 | 0.00 | 0.00 | 74 | 1018.4 |
| 20260903081544 | 56 | 255 | 0.0 | 1.0 | 0.00 | 0.00 | 0.00 | 75 | 1018.4 |
| 20260903081048 | 56 | 255 | 1.0 | 1.0 | 0.00 | 0.00 | 0.00 | 74 | 1018.4 |
| 20260903080545 | 56 | 254 | 0.0 | 0.0 | 0.00 | 0.00 | 0.00 | 73 | 1018.4 |
| 20260903080046 | 56 | 254 | 0.0 | 0.0 | 0.00 | 0.00 | 0.00 | 73 | 1018.3 |
| 20260903075544 | 57 | 254 | 0.0 | 0.0 | 0.00 | 0.00 | 0.00 | 73 | 1018.4 |
| 20260903075044 | 57 | 254 | 0.0 | 0.0 | 0.00 | 0.00 | 0.00 | 73 | 1018.4 |
| 20260903074545 | 57 | 254 | 0.0 | 0.0 | 0.00 | 0.00 | 0.00 | 73 | 1018.4 |
| 20260903074043 | 57 | 254 | 0.0 | 0.0 | 0.00 | 0.00 | 0.00 | 73 | 1018.4 |
| 20260903073545 | 57 | 254 | 0.0 | 2.0 | 0.00 | 0.00 | 0.00 | 72 | 1018.4 |
| 20260903073044 | 57 | 254 | 0.0 | 2.0 | 0.00 | 0.00 | 0.00 | 72 | 1018.3 |
| 20260903072546 | 57 | 255 | 0.0 | 0.0 | 0.00 | 0.00 | 0.00 | 72 | 1018.4 |
| 20260903072044 | 57 | 255 | 0.0 | 0.0 | 0.00 | 0.00 | 0.00 | 72 | 1018.2 |
| 20260903071543 | 57 | 255 | 0.0 | 0.0 | 0.00 | 0.00 | 0.00 | 71 | 1018.0 |
| 20260903071310 | 57 | 255 | 0.0 | 0.0 | 0.00 | 0.00 | 0.00 | 70 | 1017.9 |
| 20260903070543 | 58 | 255 | 0.0 | 0.0 | 0.00 | 0.00 | 0.00 | 70 | 1017.9 |
| 20260903070044 | 58 | 255 | 0.0 | 0.0 | 0.00 | 0.00 | 0.00 | 69 | 1018.0 |
| 20260903065543 | 58 | 255 | 0.0 | 0.0 | 0.00 | 0.00 | 0.00 | 67 | 1018.0 |
| 20260903065045 | 58 | 255 | 0.0 | 0.0 | 0.00 | 0.00 | 0.00 | 67 | 1018.0 |
| 20260903064753 | 58 | 148 | 0.0 | 0.0 | 0.00 | 0.00 | 0.00 | 68 | 1018.0 |
| 20260903064637 | 58 | 148 | 0.0 | 0.0 | 0.00 | 0.00 | 0.00 | 67 | 1018.0 |
| 20260903063759 | 58 | 121 | 0.0 | 0.0 | 0.00 | 0.00 | 0.00 | 68 | 1017.9 |
| 20260903063042 | 59 | 121 | 0.0 | 0.0 | 0.00 | 0.00 | 0.00 | 67 | 1017.8 |
| 20260903062542 | 59 | 121 | 0.0 | 0.0 | 0.00 | 0.00 | 0.00 | 65 | 1017.8 |
| 20260903062042 | 59 | 121 | 0.0 | 0.0 | 0.00 | 0.00 | 0.00 | 62 | 1017.8 |
| 20260903061543 | 60 | 121 | 0.0 | 0.0 | 0.00 | 0.00 | 0.00 | 62 | 1017.7 |
| 20260903061042 | 60 | 121 | 0.0 | 2.0 | 0.00 | 0.00 | 0.00 | 61 | 1017.7 |
| 20260903060546 | 60 | 121 | 0.0 | 4.0 | 0.00 | 0.00 | 0.00 | 61 | 1017.6 |
| 20260903060041 | 60 | 172 | 2.0 | 4.0 | 0.00 | 0.00 | 0.00 | 61 | 1017.7 |
| 20260903055543 | 60 | 131 | 2.0 | 4.0 | 0.00 | 0.00 | 0.00 | 61 | 1017.7 |
| 20260903055041 | 60 | 144 | 3.0 | 6.0 | 0.00 | 0.00 | 0.00 | 60 | 1017.6 |
| 20260903054759 | 60 | 155 | 4.0 | 6.0 | 0.00 | 0.00 | 0.00 | 59 | 1017.5 |
| 20260903054041 | 60 | 121 | 2.0 | 4.0 | 0.00 | 0.00 | 0.00 | 60 | 1017.5 |
| 20260903053541 | 60 | 137 | 0.0 | 1.0 | 0.00 | 0.00 | 0.00 | 61 | 1017.5 |
| 20260903053041 | 60 | 137 | 0.0 | 0.0 | 0.00 | 0.00 | 0.00 | 60 | 1017.3 |
| 20260903052540 | 61 | 138 | 0.0 | 0.0 | 0.00 | 0.00 | 0.00 | 60 | 1017.3 |
| 20260903052307 | 61 | 138 | 0.0 | 0.0 | 0.00 | 0.00 | 0.00 | 58 | 1017.3 |
| 20260903051540 | 61 | 137 | 0.0 | 2.0 | 0.00 | 0.00 | 0.00 | 58 | 1017.2 |
| 20260903051042 | 61 | 138 | 1.0 | 2.0 | 0.00 | 0.00 | 0.00 | 57 | 1017.3 |
| 20260903050540 | 61 | 104 | 1.0 | 2.0 | 0.00 | 0.00 | 0.00 | 57 | 1017.3 |
| 20260903050041 | 61 | 207 | 0.0 | 2.0 | 0.00 | 0.00 | 0.00 | 57 | 1017.2 |
| 20260903045540 | 61 | 175 | 1.0 | 4.0 | 0.00 | 0.00 | 0.00 | 57 | 1017.2 |
| 20260903045039 | 61 | 113 | 2.0 | 4.0 | 0.00 | 0.00 | 0.00 | 57 | 1017.2 |
| 20260903044547 | 61 | 166 | 1.0 | 3.0 | 0.00 | 0.00 | 0.00 | 57 | 1017.1 |
| 20260903044304 | 62 | 140 | 2.0 | 4.0 | 0.00 | 0.00 | 0.00 | 57 | 1017.1 |
| 20260903043541 | 62 | 128 | 2.0 | 4.0 | 0.00 | 0.00 | 0.00 | 56 | 1017.0 |
| 20260903043040 | 62 | 118 | 2.0 | 4.0 | 0.00 | 0.00 | 0.00 | 56 | 1016.9 |
| 20260903042541 | 62 | 121 | 1.0 | 3.0 | 0.00 | 0.00 | 0.00 | 56 | 1017.0 |
| 20260903042044 | 62 | 145 | 1.0 | 3.0 | 0.00 | 0.00 | 0.00 | 55 | 1017.0 |
| 20260903041540 | 62 | 124 | 2.0 | 5.0 | 0.00 | 0.00 | 0.00 | 55 | 1017.0 |